Regional Weather Roundup
Issued by NWS

Home | Current Version | Previous Version | Text Only | Print | Product List | Glossary Off
Versions: 1 2 3 4 5 6 7 8 9 10 11 12 13 14 15 16 17 18 19 20 21 22 23 24 25 26 27 28 29 30 31 32 33 34 35 36 37 38 39 40 41 42 43 44 45 46 47 48 49 50

000
ASUS44 KMEG 011410
RWRTN
TENNESSEE HOURLY STATE WEATHER ROUNDUP
NATIONAL WEATHER SERVICE MEMPHIS TN
800 AM CST SUN MAR 01 2015

TNZ002-004-019-021-049-052-054-088>092-011500-
WEST TENNESSEE

CITY           SKY/WX    TMP DP  RH WIND       PRES   REMARKS
MEMPHIS INTL   RAIN      36  31  82 N5        30.37S FOG     WCI  32
NWS MEMPHIS      N/A     36 N/A N/A MISG        N/A
JACKSON        RAIN      39  34  82 NW3       30.38R
DYERSBURG      CLOUDY    34  19  55 CALM      30.42R
UNION CITY     CLOUDY    32  30  93 CALM      30.37S
PARIS          CLOUDY    34  30  86 CALM      30.38R
LEXINGTON      CLOUDY    43  30  61 CALM      30.36R
SAVANNAH       CLOUDY    46  41  81 CALM      30.38R
$$

TNZ008-025-027-028-033-062-065-066-011500-
NORTH MIDDLE TENNESSEE

CITY           SKY/WX    TMP DP  RH WIND       PRES   REMARKS
NASHVILLE      CLOUDY    47  36  65 CALM      30.38R
CLARKSVILLE    LGT RAIN  37  30  75 CALM      30.38R
SMYRNA         CLOUDY    47  36  65 S8        30.39S
COOKEVILLE     CLOUDY    45  39  81 S6        30.38F
CROSSVILLE     CLOUDY    45  39  79 S9        30.40S
$$

TNZ061-075-076-078-094-096-097-011500-
SOUTH MIDDLE TENNESSEE

CITY           SKY/WX    TMP DP  RH WIND       PRES   REMARKS
FAYETTEVILLE   CLOUDY    45  37  76 S13         N/A
TULLAHOMA      CLOUDY    45  36  70 SE6       30.39S
WINCHESTER     CLOUDY    45  39  81 SE9       30.40S
MCMINNVILLE    CLOUDY    48  39  71 SE5       30.38F
COLUMBIA       CLOUDY    48  48 100 S7        30.35S
SHELBYVILLE    CLOUDY    48  39  71 S10       30.39S
$$

TNZ017-018-042-046-047-011500-
NORTHEAST TENNESSEE

CITY           SKY/WX    TMP DP  RH WIND       PRES   REMARKS
TRI CITIES     MOSUNNY   40  28  62 CALM      30.45R
ELIZABETHTON   SUNNY     43  32  65 E5        30.43S
$$

TNZ012-013-036-069-073-074-011500-
CENTRAL EAST TENNESSEE

CITY           SKY/WX    TMP DP  RH WIND       PRES   REMARKS
KNOXVILLE      PTSUNNY   39  29  67 CALM      30.47R
OAK RIDGE      CLOUDY    44  31  60 VRB3      30.46R
GATLINBURG     MOSUNNY   36  28  75 CALM      30.44S
MORRISTOWN     PTSUNNY   37  28  70 CALM      30.44S
$$

TNZ083-085-099-011500-
SOUTHEAST TENNESSEE

CITY           SKY/WX    TMP DP  RH WIND       PRES   REMARKS
CHATTANOOGA    CLOUDY    43  33  68 S5        30.47R
$$

SKY/WX REPORTED AS FAIR MEANS FEW OR NO CLOUDS BELOW
12 THOUSAND FEET.




USA.gov is the U.S. government's official web portal to all federal, state and local government web resources and services.